Theta_e
315 316 317 317 316 316 315 313 308 308 303 301 299 299 301 302 301 301 303 305 307 308 303 303 304 306 307 305 305 302 305 306 307 306 308 302 305 303 302 302 301 302 304 305 304
315 315 315 315 316 315 314 312 309 306 306 301 300 300 302 302 302 300 301 306 306 304 303 303 303 303 302 305 303 302 302 305 302 302 303 302 304 302 304 303 301 304 304 304 303
315 315 315 315 315 315 314 309 307 306 306 302 300 300 302 304 302 300 301 302 303 303 303 303 302 303 304 305 303 305 303 302 303 304 302 303 303 300 302 304 301 301 304 302 300
315 315 313 314 314 314 311 308 306 305 306 302 300 300 302 304 306 300 302 303 304 304 304 303 301 303 303 304 303 304 302 302 303 302 302 303 301 301 301 302 300 300 302 302 300
315 314 311 311 313 311 307 307 306 305 306 302 300 299 303 299 299 300 302 303 304 304 303 303 302 303 303 303 302 303 302 302 301 302 302 302 301 301 300 298 298 301 302 302 301
315 313 310 311 308 307 307 306 305 306 304 302 300 302 302 302 300 300 302 303 303 303 303 303 302 302 302 303 302 302 302 302 302 303 302 302 301 300 300 299 298 301 302 301 301
315 312 309 308 308 307 306 306 306 303 303 301 300 300 298 300 300 301 302 303 303 303 303 304 304 303 302 302 303 302 304 303 303 303 302 300 301 300 298 299 299 298 302 301 301
315 312 310 309 308 306 305 307 305 304 302 299 301 300 297 299 299 301 301 303 303 303 303 302 303 302 303 302 303 303 304 303 304 302 302 300 304 302 299 298 300 298 298 300 301
316 312 311 306 304 306 305 306 306 302 302 302 302 300 298 299 299 301 301 302 303 304 304 304 303 301 302 304 307 304 305 306 304 301 300 301 302 302 300 300 299 298 297 297 298
316 312 310 304 304 305 306 307 302 304 303 303 300 303 298 297 299 301 302 302 302 302 303 303 302 300 296 301 303 304 301 303 303 301 301 301 301 302 300 299 298 297 296 296 297
313 310 307 304 305 305 307 309 304 305 297 295 296 298 296 299 300 302 301 303 303 301 301 304 301 299 300 301 301 302 303 303 303 300 300 301 300 301 301 298 297 297 297 296 296
313 306 304 304 306 305 304 301 300 300 298 296 296 296 297 298 301 300 302 301 300 300 305 302 301 302 302 302 302 303 302 301 301 300 299 298 298 299 298 298 297 296 295 295 297
310 304 304 305 307 305 303 300 301 302 300 301 296 296 296 300 301 300 300 301 298 299 298 304 302 302 302 300 302 302 301 301 301 298 297 295 297 298 297 299 299 297 295 295 296
305 304 305 306 307 305 302 302 301 303 298 303 300 297 300 300 302 300 300 301 300 298 301 301 301 302 301 301 299 302 299 299 300 294 295 294 298 297 297 297 299 298 295 296 296
304 305 305 305 305 303 303 303 301 302 301 302 300 298 301 302 302 302 301 301 301 300 297 300 302 301 301 300 298 300 297 298 295 289 290 293 291 296 297 299 297 297 297 296 295
305 305 305 307 304 303 303 302 303 302 299 299 301 301 302 301 302 300 301 299 299 302 300 299 298 298 299 298 297 297 296 294 292 285 293 286 291 299 300 299 298 297 295 295 294
305 304 304 304 303 304 304 301 303 301 296 298 302 302 301 299 303 301 302 300 300 297 294 297 300 298 297 299 298 295 289 292 295 294 298 280 292 300 300 297 295 296 295 293 293
306 304 303 303 304 306 303 299 297 291 292 301 303 304 303 301 301 301 303 300 298 297 291 292 295 293 297 298 299 297 290 293 293 296 297 282 294 300 296 294 293 292 294 293 292
307 305 303 303 305 306 297 294 294 296 301 302 300 295 294 302 298 297 301 300 300 298 294 293 296 296 296 296 295 294 289 291 285 277 287 292 293 296 296 291 293 293 293 293 292
308 305 303 304 302 299 294 297 295 300 303 301 297 296 290 290 299 295 297 300 300 297 292 296 293 290 296 296 293 291 291 292 287 292 289 290 285 299 297 294 292 292 291 291 291
306 301 302 304 298 292 292 288 295 298 301 301 302 299 299 295 298 294 299 301 298 297 295 290 289 291 295 289 289 290 289 288 288 292 292 290 296 290 292 293 290 290 290 287 289
300 296 301 301 295 283 289 296 298 301 299 302 301 298 296 298 298 292 300 298 297 294 298 296 293 290 294 294 293 292 290 293 294 290 287 292 297 293 290 282 279 286 285 285 284
293 293 298 296 291 291 296 298 298 300 300 300 300 302 298 293 292 300 302 299 296 297 296 297 289 287 292 291 292 292 294 291 288 292 290 293 299 286 280 283 282 284 287 284 282
293 293 291 292 289 293 293 294 296 297 301 299 300 300 300 292 295 294 300 299 297 298 299 297 296 291 291 287 286 292 293 295 292 286 296 298 298 295 297 297 296 297 293 288 284
291 293 290 292 294 294 295 293 296 296 298 298 295 298 295 292 296 290 298 298 298 299 299 295 293 294 293 291 287 293 290 291 294 296 295 298 297 289 295 297 298 292 290 289 291
294 292 289 293 295 296 294 298 295 295 297 297 293 298 296 291 295 296 298 298 298 297 297 295 293 289 296 296 297 297 297 296 295 295 294 296 296 296 296 296 295 295 293 290 291
295 294 293 295 294 292 294 296 297 297 297 297 297 297 298 297 295 295 296 297 297 296 296 296 292 288 292 289 289 292 292 295 295 287 294 295 296 295 294 295 295 288 290 292 293
Wind_Speed
15 16 15 15 15 15 15 15 14 12 9 8 7 6 4 3 8 5 7 10 10 14 7 6 3 2 2 3 4 3 4 2 3 3 1 5 1 2 1 4 2 2 5 3 30
14 16 16 16 16 16 15 16 15 13 9 7 7 5 3 2 3 11 11 12 9 8 4 7 3 4 3 2 3 4 4 7 1 1 1 3 2 3 2 1 1 0 3 18 32
15 16 16 17 17 16 16 16 16 14 8 5 5 4 2 2 1 3 15 12 7 5 3 3 2 1 3 2 2 2 4 3 1 2 1 3 0 4 3 4 5 6 5 12 19
16 17 16 16 17 16 16 18 17 14 6 3 3 3 3 1 1 7 13 12 6 3 1 1 1 2 3 3 0 3 1 1 1 2 2 2 6 6 3 3 3 3 11 15 12
16 16 17 17 16 17 18 18 18 11 3 2 2 2 1 4 1 10 11 10 5 2 5 2 2 1 4 3 2 2 2 2 1 2 2 3 3 5 7 7 3 6 8 12 12
16 17 18 16 15 18 17 17 13 5 1 1 2 2 1 3 3 11 10 8 10 6 4 6 2 2 4 2 2 2 2 2 1 1 1 3 2 3 4 2 6 7 10 9 11
16 16 16 18 17 17 16 14 7 3 2 1 2 4 6 2 3 11 9 6 8 6 3 4 3 3 2 3 1 3 2 2 0 1 1 2 5 7 5 2 5 8 8 9 13
16 15 16 18 19 16 15 8 4 3 2 3 3 2 2 3 4 11 11 2 5 5 4 4 4 5 3 2 4 2 3 2 0 3 1 1 6 3 2 5 7 8 7 8 10
15 15 16 17 18 16 12 2 3 4 4 2 2 3 1 3 4 10 9 5 5 3 4 3 4 3 4 3 4 6 2 1 2 4 3 2 6 3 2 1 6 7 8 8 8
14 15 16 17 17 16 6 4 9 2 3 3 5 4 5 4 6 10 5 6 3 3 3 6 5 4 4 5 3 2 2 2 3 5 3 4 14 14 8 9 10 10 9 9 9
13 15 15 15 14 16 2 1 4 3 11 3 1 0 3 9 3 9 7 3 3 7 4 4 6 2 2 2 1 2 2 2 3 4 4 4 10 18 10 7 9 11 11 9 9
12 13 13 12 10 12 4 6 2 2 5 3 1 1 2 5 4 9 10 3 6 3 4 6 3 2 0 4 3 4 2 4 5 2 3 5 16 19 11 5 4 7 8 8 5
10 11 11 11 3 5 12 5 2 1 4 3 2 2 3 5 2 7 6 2 5 5 4 5 1 3 3 5 4 2 2 2 3 7 1 8 8 6 3 3 4 4 4 1 7
8 8 8 4 2 3 4 3 1 1 4 5 4 3 3 1 4 3 4 2 5 3 2 5 3 3 4 4 3 1 3 2 2 5 2 5 5 7 3 7 4 5 5 3 5
6 6 4 2 6 3 1 1 3 1 3 3 5 3 5 5 4 6 4 4 4 2 5 3 4 5 5 1 2 1 3 2 3 3 3 6 3 8 4 5 6 6 4 3 4
3 4 1 2 5 4 2 4 2 6 5 3 3 5 4 6 6 6 4 7 3 4 5 1 2 3 1 2 3 2 3 5 3 3 3 3 3 6 3 4 4 3 5 6 6
1 6 4 3 3 2 5 1 5 4 4 5 2 4 3 5 4 7 5 5 2 4 4 5 2 3 4 2 3 5 6 4 6 4 5 2 1 10 7 6 4 6 9 8 7
1 4 12 9 5 3 3 5 4 3 5 1 2 3 4 5 3 6 2 3 5 4 3 3 6 3 5 3 2 3 5 4 5 2 5 2 6 6 5 5 5 7 7 7 8
4 4 4 9 4 1 4 4 7 6 3 5 3 5 4 1 2 4 4 0 1 2 4 3 4 1 4 3 3 2 2 2 6 1 3 3 8 10 3 6 7 8 5 9 10
4 3 3 8 2 2 4 3 2 2 2 1 4 2 3 3 3 4 2 2 1 4 2 3 4 1 4 2 5 4 2 4 3 2 5 5 7 6 8 8 6 7 8 8 7
3 3 4 5 1 5 3 5 3 4 2 1 3 3 2 4 3 2 3 0 1 2 4 4 4 5 2 3 7 2 2 4 3 4 4 2 6 7 8 8 7 8 9 7 8
3 2 6 3 4 1 3 3 2 1 3 1 3 3 4 5 2 1 2 4 3 5 3 1 3 2 9 1 3 3 6 4 4 6 3 2 10 6 8 2 2 10 9 6 7
2 1 4 3 3 1 3 2 1 1 1 2 2 1 4 5 3 3 2 1 4 3 4 4 2 4 9 4 4 2 4 3 2 2 6 2 7 2 4 6 5 8 8 7 7
3 2 4 4 1 5 5 3 1 2 1 2 2 2 3 3 3 2 2 1 4 2 5 4 4 7 7 6 3 3 4 5 5 3 8 19 30 10 18 19 15 16 15 11 9
3 0 2 1 3 3 2 4 3 1 2 1 4 3 5 2 1 2 2 2 1 1 3 4 5 5 8 8 5 12 7 9 13 13 10 33 25 4 15 21 23 10 11 12 16
3 3 3 1 1 3 3 4 5 2 4 2 3 3 4 5 5 5 4 2 5 1 5 2 4 1 8 9 15 21 16 20 20 20 17 26 34 19 21 20 18 16 13 13 18
3 2 3 2 1 3 3 4 5 5 1 1 3 3 2 6 5 5 5 5 6 6 5 5 2 3 6 3 5 9 15 19 12 5 11 14 22 12 16 19 19 8 12 16 16
Wind_Direction
12 6 4 3 0 356 355 359 0 357 352 349 347 348 13 82 48 63 42 337 318 326 334 332 89 95 104 77 47 108 66 210 228 173 305 0 77 6 347 112 59 24 146 225 159
3 0 356 353 351 349 351 350 349 348 345 350 351 351 16 180 34 53 4 339 340 342 358 27 38 6 47 68 23 87 123 218 163 170 263 308 35 340 41 55 199 26 21 146 158
352 351 349 347 346 342 345 344 338 340 331 339 358 3 60 103 58 337 354 350 345 338 349 345 332 18 74 59 22 141 180 156 226 334 339 306 42 318 121 244 224 202 161 153 154
343 346 351 347 343 340 342 337 334 332 323 324 4 30 67 67 226 353 353 354 350 352 345 0 18 75 89 129 61 125 89 62 148 349 356 340 319 321 215 230 346 249 164 165 169
341 345 344 341 341 341 337 334 331 329 328 329 0 40 100 50 0 350 356 5 10 41 52 33 65 81 131 118 83 99 149 80 100 18 348 343 264 268 267 251 306 114 151 180 184
337 339 342 344 344 339 338 336 336 341 31 0 11 94 105 81 7 357 353 17 32 49 37 35 89 103 97 69 89 112 95 96 51 43 16 338 284 4 280 316 211 160 191 195 192
330 335 340 343 342 341 340 340 344 8 39 18 75 90 62 144 348 3 3 22 24 36 71 42 13 42 114 100 152 106 75 353 300 22 335 40 280 237 253 332 198 216 204 208 214
326 329 334 337 338 340 340 341 354 9 45 78 89 65 99 12 354 3 10 26 34 51 66 47 51 97 53 111 40 52 47 54 179 8 26 347 274 244 17 177 227 220 223 214 219
317 324 329 334 338 341 342 18 28 78 70 55 71 86 79 343 13 357 359 356 351 45 58 45 66 80 33 71 25 19 180 318 331 38 335 35 274 242 69 161 261 245 231 227 228
310 320 325 332 339 344 356 132 61 118 28 50 55 49 18 321 324 340 356 2 23 345 31 49 50 66 34 53 225 271 22 311 279 351 352 276 266 276 260 249 252 251 246 230 226
308 318 323 330 341 349 40 180 13 353 41 86 302 1 337 330 326 355 348 356 21 49 49 11 64 78 325 6 26 83 75 303 289 22 340 267 284 283 290 265 261 254 251 241 231
304 316 322 328 337 355 47 74 69 144 85 25 52 33 353 350 357 347 6 66 60 72 344 26 86 320 279 34 60 62 73 296 294 41 4 338 292 282 285 255 248 282 279 236 185
299 311 320 326 327 29 69 76 79 97 92 0 29 24 316 10 52 333 21 69 78 53 19 114 122 17 76 36 47 56 139 337 263 327 1 332 291 314 324 304 319 346 317 214 193
296 310 326 336 155 65 55 42 77 107 79 314 352 10 0 1 34 332 19 103 39 148 68 78 4 63 53 75 61 0 9 35 10 38 276 19 280 302 328 302 287 322 7 74 115
297 320 328 29 132 75 81 55 131 62 47 307 315 330 326 59 301 4 8 30 70 48 78 267 18 36 58 44 63 144 39 63 89 89 45 350 68 272 324 293 259 242 245 217 197
315 326 196 119 76 90 99 129 116 49 255 339 310 351 37 19 10 321 25 47 126 83 43 73 44 53 70 69 56 82 54 42 62 93 20 271 109 286 259 225 297 234 225 214 204
22 49 104 101 102 80 125 81 45 127 344 286 22 36 101 358 11 27 11 18 65 54 355 351 18 357 32 37 38 60 49 337 354 9 229 303 33 246 259 268 246 240 219 208 204
105 110 73 70 52 105 120 56 92 231 224 316 32 76 80 354 34 358 26 39 43 73 86 103 332 30 353 61 180 55 130 148 230 277 275 355 244 249 222 288 270 269 229 205 201
151 95 66 15 25 145 76 70 204 198 168 163 66 74 323 8 127 49 26 228 51 78 133 101 289 10 47 23 68 277 38 163 97 81 40 259 288 294 307 279 254 255 209 211 214
147 98 45 357 0 112 74 202 146 248 330 77 145 130 166 281 56 56 0 289 62 38 120 168 348 322 301 89 29 132 144 34 11 331 299 293 281 242 298 287 276 270 238 244 246
123 67 10 358 62 50 139 208 228 250 248 98 167 129 160 167 161 180 191 320 105 95 79 123 96 289 13 184 182 40 0 38 123 156 204 282 259 217 238 253 265 269 256 253 251
97 50 4 15 51 33 108 155 186 305 42 74 98 111 167 165 144 74 222 202 146 149 98 88 135 261 229 134 164 170 190 158 132 268 231 169 270 240 244 271 278 286 273 289 272
94 250 12 21 134 79 127 120 188 244 180 138 110 133 196 162 67 201 216 160 135 134 161 171 338 354 337 14 0 211 201 162 114 89 197 175 258 286 286 327 270 273 301 281 281
85 26 338 47 74 129 143 175 189 266 234 118 131 95 143 40 23 180 233 142 170 166 160 152 188 183 214 205 144 207 200 213 161 159 272 243 271 302 292 298 303 304 298 288 274
31 151 194 254 343 103 99 135 132 171 316 70 10 184 160 118 44 217 225 330 77 180 159 146 225 228 244 246 216 250 215 222 224 242 226 273 268 278 278 292 292 277 283 285 277
110 119 13 89 55 93 4 214 162 235 141 257 159 183 163 157 188 195 160 159 224 89 173 180 270 105 276 234 246 262 253 245 237 245 253 263 274 266 280 283 288 285 281 271 273
71 103 97 0 62 93 222 180 200 141 234 160 165 116 222 240 225 232 223 227 215 176 195 172 163 39 265 343 306 286 232 237 232 182 217 253 263 292 281 285 301 301 283 278 282